Stations météo

Publicité
Los Angeles/Int., Etats-Unis (72295): Température de l'air & dewpoint: 17.07.2018 10:00:00 - 23.07.2018 10:00:00 (PDT)Los Angeles/Int., Etats-Unis (72295): Vitesse du vent: 17.07.2018 10:00:00 - 23.07.2018 10:00:00 (PDT)Los Angeles/Int., Etats-Unis (72295): Direction du vent: 17.07.2018 10:00:00 - 23.07.2018 10:00:00 (PDT)Los Angeles/Int., Etats-Unis (72295): reduced air pressure: 17.07.2018 10:00:00 - 23.07.2018 10:00:00 (PDT)Los Angeles/Int., Etats-Unis (72295): visibility: 17.07.2018 10:00:00 - 23.07.2018 10:00:00 (PDT)Los Angeles/Int., Etats-Unis (72295): Quantités de précipitations: 17.07.2018 10:00:00 - 23.07.2018 10:00:00 (PDT)
Date & Time tt [°C] td [°C] ff [km/h] ff [knt] dd ppp [hPa] vv [km] rr [mm]
23.07.2018 10:00:00 28,9 17,2 0 0 N 1013,7 16 -
23.07.2018 09:00:00 26,1 17,2 5 3 E 1013,8 16 -
23.07.2018 08:00:00 23,9 18,3 0 0 N 1013,9 16 -
23.07.2018 07:00:00 22,2 18,3 0 0 N 1013,7 16 -
23.07.2018 06:00:00 21,1 18,3 5 3 S 1013,2 16 -
23.07.2018 05:00:00 21,1 17,8 0 0 N 1013,0 16 0,0
23.07.2018 04:00:00 21,1 17,8 8 4 SSE 1013,3 16 -
23.07.2018 03:00:00 21,1 17,8 11 6 S 1013,7 16 -
23.07.2018 02:00:00 21,1 17,8 8 4 S 1014,1 16 -
23.07.2018 01:00:00 21,1 17,8 0 0 N 1014,6 16 -
23.07.2018 00:00:00 21,1 17,2 11 6 S 1014,7 16 -
22.07.2018 23:00:00 22,2 17,2 5 3 SSW 1014,8 16 -
22.07.2018 22:00:00 21,1 16,7 11 6 SW 1014,7 16 -
22.07.2018 21:00:00 21,7 16,7 16 9 WSW 1014,3 16 -
22.07.2018 20:00:00 21,7 17,2 22 12 WSW 1014,1 16 -
22.07.2018 19:00:00 23,3 17,2 26 14 WSW 1014,0 16 -
22.07.2018 18:00:00 24,4 17,2 28 15 WSW 1014,1 16 -
22.07.2018 17:00:00 24,4 17,2 28 15 W 1014,8 16 0,0
22.07.2018 16:00:00 24,4 18,3 26 14 W 1015,2 16 -
22.07.2018 15:00:00 25,0 18,3 29 16 W 1015,8 16 -
22.07.2018 14:00:00 25,6 16,7 26 14 W 1016,1 16 -
22.07.2018 13:00:00 25,6 16,1 22 12 W 1016,6 16 -
22.07.2018 12:00:00 26,1 17,8 22 12 W 1016,9 16 -
22.07.2018 11:00:00 25,6 18,9 11 6 W 1016,8 16 0,0
22.07.2018 10:00:00 25,0 18,9 13 7 W 1017,0 16 -
22.07.2018 09:00:00 24,4 18,3 5 3 - 1017,0 16 -
22.07.2018 08:00:00 22,2 18,3 0 0 N 1017,2 16 -
22.07.2018 07:00:00 21,1 17,8 8 4 SW 1016,8 16 -
22.07.2018 06:00:00 20,0 17,8 0 0 N 1016,6 16 -
22.07.2018 05:00:00 20,6 17,8 0 0 N 1016,1 16 0,0
22.07.2018 04:00:00 20,6 17,8 5 3 SSW 1016,3 16 -
22.07.2018 03:00:00 20,6 17,8 5 3 W 1016,1 16 -
22.07.2018 02:00:00 20,6 17,8 5 3 - 1016,3 16 -
22.07.2018 01:00:00 20,6 17,8 8 4 WSW 1016,6 16 -
22.07.2018 00:00:00 21,1 17,8 9 5 SSW 1016,7 16 -
21.07.2018 23:00:00 21,1 17,8 11 6 SW 1016,4 10 0,0
21.07.2018 22:00:00 20,6 17,8 18 10 SW 1015,8 16 -
21.07.2018 21:00:00 21,1 16,7 26 14 WSW 1014,9 16 -
21.07.2018 20:00:00 21,7 17,8 22 12 WSW 1014,4 10 -
21.07.2018 19:00:00 22,8 17,8 29 16 WSW 1013,9 16 -
21.07.2018 18:00:00 23,3 17,8 28 15 W 1013,8 16 -
21.07.2018 17:00:00 23,9 17,2 34 18 W 1013,8 16 0,0
21.07.2018 16:00:00 23,9 17,2 28 15 W 1014,4 16 -
21.07.2018 15:00:00 23,9 17,2 26 14 WSW 1015,2 16 -
21.07.2018 14:00:00 23,9 16,7 22 12 WSW 1015,4 16 -
21.07.2018 13:00:00 23,3 16,7 18 10 W 1015,9 16 -
21.07.2018 12:00:00 23,3 16,7 22 12 W 1016,1 16 -
21.07.2018 11:00:00 22,8 17,2 21 11 W 1015,9 16 0,0
21.07.2018 10:00:00 22,2 17,2 18 10 WSW 1016,1 16 -
21.07.2018 09:00:00 21,7 17,2 13 7 WSW 1016,0 16 -
21.07.2018 08:00:00 20,6 16,7 8 4 WSW 1015,4 16 -
21.07.2018 07:00:00 20,6 16,7 16 9 W 1014,8 16 -
21.07.2018 06:00:00 20,6 17,2 11 6 WSW 1014,7 16 -
21.07.2018 05:00:00 20,6 17,2 13 7 W 1014,6 16 0,0
21.07.2018 04:00:00 20,6 17,2 15 8 W 1014,6 16 -
21.07.2018 03:00:00 21,1 17,8 16 9 W 1014,5 16 -
21.07.2018 02:00:00 21,1 18,3 13 7 W 1014,3 16 -
21.07.2018 01:00:00 21,1 18,3 13 7 WSW 1014,4 16 -
21.07.2018 00:00:00 20,6 17,2 13 7 WSW 1014,8 16 -
20.07.2018 23:00:00 20,6 17,8 16 9 WSW 1014,5 16 0,0
20.07.2018 22:00:00 20,6 17,8 18 10 W 1014,2 16 -
20.07.2018 21:00:00 20,6 17,2 18 10 WSW 1013,6 16 -
20.07.2018 20:00:00 21,1 17,2 22 12 WSW 1013,2 16 -
20.07.2018 19:00:00 21,7 17,2 15 8 W 1012,9 16 -
20.07.2018 18:00:00 22,2 17,2 21 11 W 1013,0 16 -
20.07.2018 17:00:00 22,8 17,2 18 10 W 1013,3 16 -
20.07.2018 16:00:00 23,3 17,2 21 11 W 1013,6 16 -
20.07.2018 15:00:00 23,3 16,7 21 11 WSW 1014,1 16 -
20.07.2018 14:00:00 23,9 16,7 22 12 W 1014,5 15 -
20.07.2018 13:00:00 23,9 17,2 18 10 WSW 1014,8 15 -
20.07.2018 12:00:00 23,3 17,2 18 10 W 1015,0 15 -
20.07.2018 11:00:00 22,8 17,8 18 10 WSW 1015,1 15 0,0
20.07.2018 10:00:00 22,2 17,8 18 10 W 1014,6 15 -
20.07.2018 09:00:00 22,2 17,8 16 9 WSW 1014,2 16 -
20.07.2018 08:00:00 21,7 17,8 0 0 N 1013,7 16 -
20.07.2018 07:00:00 20,6 17,8 11 6 W 1013,6 16 -
20.07.2018 06:00:00 20,6 17,8 9 5 WSW 1013,6 16 -
20.07.2018 05:00:00 20,0 17,8 13 7 W 1013,3 16 0,0
20.07.2018 04:00:00 20,6 17,8 11 6 W 1013,2 16 -
20.07.2018 03:00:00 20,6 17,8 11 6 W 1013,2 16 -
20.07.2018 02:00:00 20,6 17,8 9 5 WSW 1013,1 16 -
20.07.2018 01:00:00 21,1 17,8 9 5 SW 1013,5 16 -
20.07.2018 00:00:00 21,1 17,8 11 6 W 1013,7 16 -
19.07.2018 23:00:00 20,6 17,8 13 7 WSW 1014,1 16 0,0
19.07.2018 22:00:00 20,6 17,8 15 8 WSW 1014,3 16 -
19.07.2018 21:00:00 20,6 17,2 13 7 WSW 1013,8 16 -
19.07.2018 20:00:00 21,1 17,2 11 6 SW 1013,2 16 -
19.07.2018 19:00:00 21,7 17,8 16 9 W 1012,8 16 -
19.07.2018 18:00:00 22,2 17,8 16 9 W 1012,7 16 -
19.07.2018 17:00:00 22,8 17,8 21 11 WSW 1013,1 16 0,0
19.07.2018 16:00:00 23,9 18,3 24 13 WSW 1013,6 16 -
19.07.2018 15:00:00 25,0 18,9 26 14 W 1013,8 16 -
19.07.2018 14:00:00 25,6 18,9 28 15 W 1013,9 16 -
19.07.2018 13:00:00 25,6 18,9 21 11 W 1014,1 16 -
19.07.2018 12:00:00 25,6 18,9 21 11 W 1014,6 16 -
19.07.2018 11:00:00 25,6 18,9 18 10 W 1014,8 16 0,0
19.07.2018 10:00:00 25,0 18,9 15 8 WSW 1014,8 16 -
19.07.2018 09:00:00 25,0 18,3 8 4 SSW 1014,6 16 -
19.07.2018 08:00:00 23,3 18,9 0 0 N 1014,4 16 -
19.07.2018 07:00:00 21,7 18,9 5 3 NNW 1014,6 15 -
19.07.2018 06:00:00 21,1 18,9 9 5 NNW 1014,4 11 -
19.07.2018 05:00:00 21,1 18,3 8 4 W 1014,1 16 0,0
19.07.2018 04:00:00 21,1 18,9 8 4 WSW 1014,0 16 -
19.07.2018 03:00:00 21,7 17,8 8 4 SSE 1013,8 16 -
19.07.2018 02:00:00 21,7 18,3 0 0 N 1013,9 16 -
19.07.2018 01:00:00 21,7 18,3 5 3 NE 1014,6 16 -
19.07.2018 00:00:00 21,7 18,3 8 4 NNE 1015,3 16 -
18.07.2018 23:00:00 21,1 18,3 5 3 S 1015,5 16 0,0
18.07.2018 22:00:00 21,1 18,3 11 6 SW 1015,2 16 -
18.07.2018 21:00:00 21,1 18,3 13 7 W 1014,6 16 -
18.07.2018 20:00:00 21,7 18,3 21 11 W 1013,8 16 -
18.07.2018 19:00:00 21,7 18,3 16 9 WSW 1013,6 16 -
18.07.2018 18:00:00 21,7 18,3 21 11 W 1013,6 16 -
18.07.2018 17:00:00 22,8 18,3 18 10 WSW 1014,0 16 0,0
18.07.2018 16:00:00 23,3 18,3 22 12 W 1014,1 16 -
18.07.2018 15:00:00 25,0 18,3 21 11 WSW 1014,7 16 -
18.07.2018 14:00:00 24,4 18,9 18 10 W 1015,2 15 -
18.07.2018 13:00:00 23,3 18,9 11 6 WSW 1016,1 13 -
18.07.2018 12:00:00 23,3 18,3 15 8 W 1016,5 13 -
18.07.2018 11:00:00 23,9 18,9 8 4 - 1016,7 13 0,0
18.07.2018 10:00:00 23,3 18,3 5 3 - 1016,3 13 -
18.07.2018 09:00:00 23,3 18,3 11 6 SSE 1015,8 10 -
18.07.2018 08:00:00 22,2 17,8 13 7 WNW 1014,7 13 -
18.07.2018 07:00:00 21,7 17,8 13 7 W 1015,5 13 -
18.07.2018 06:00:00 21,7 17,8 5 3 NNE 1015,7 15 -
18.07.2018 05:00:00 21,1 17,8 9 5 ESE 1015,8 16 0,0
18.07.2018 04:00:00 20,6 17,8 0 0 N 1015,0 16 -
18.07.2018 03:00:00 20,6 17,8 8 4 NNW 1014,7 16 -
18.07.2018 02:00:00 20,6 17,2 9 5 WSW 1014,8 16 -
18.07.2018 01:00:00 20,6 17,2 5 3 NNW 1014,7 16 -
18.07.2018 00:00:00 21,1 17,2 11 6 NNW 1015,2 16 -
17.07.2018 23:00:00 20,6 16,7 5 3 - 1016,0 16 0,0
17.07.2018 22:00:00 20,6 16,7 16 9 W 1015,1 16 -
17.07.2018 21:00:00 20,6 17,2 21 11 W 1014,1 16 -
17.07.2018 20:00:00 20,6 17,2 15 8 W 1013,7 16 -
17.07.2018 19:00:00 21,1 17,8 21 11 WSW 1013,3 16 -
17.07.2018 18:00:00 21,7 17,8 22 12 W 1013,1 16 -
17.07.2018 17:00:00 23,3 17,8 26 14 WSW 1013,5 16 0,0
17.07.2018 16:00:00 23,9 18,3 21 11 WSW 1013,6 16 -
17.07.2018 15:00:00 24,4 17,8 22 12 W 1014,0 16 -
17.07.2018 14:00:00 23,9 18,3 22 12 W 1014,7 15 -
17.07.2018 13:00:00 23,3 18,3 16 9 W 1014,9 15 -
17.07.2018 12:00:00 21,7 18,3 13 7 WSW 1015,4 15 -
17.07.2018 11:00:00 22,2 18,3 13 7 W 1015,6 11 0,0
17.07.2018 10:00:00 21,1 18,3 9 5 W 1015,5 11 -

tt = Température de l'air
td = dewpoint
ff = Vitesse du vent
dd = Direction du vent
ppp = reduced air pressure
vv = visibility
rr = Quantités de précipitations

stations d'obs. à proximité